PositionNumNom Prénom NomPrénomCat.Tempsmoyenne(min/km)vitesse (km/h)
1601LoquetThomasBonnierVincentS H1:44:350:04:4112,7936255
2606CantreulVincentDelbecqNathanS H01:47:510:04:5012,40611961
3623LemoineSamuelVinchentOlivierV H01:51:070:04:5912,04139793
4632LenobleMaxenceWattiezSimonS H01:52:100:05:0211,92867756
5616StraccialanoLuigiLignierAnselmeV H1:56:020:05:1211,5311692
6620FlamengXavierHuartSimonSH1:56:200:05:1311,50143266
7651Van HulleFrançoisMoulinJordyS H1:58:100:05:1811,32299013
8673messiaenxaviermessiaenbenjaminS H01:59:300:05:2211,19665272
9628FontaineThomasFontaineRobertS H02:00:170:05:2411,12373562
10645GRUMERMERCHRISTOPHEGRUMERMERCHRISTIANV H02:01:170:05:2611,03201869
11621RozelGauthierLeleuSylvainVH02:01:230:05:2711,02293011
12674MeurissePaulDewaillyVictorS H02:02:160:05:2910,94329335
13682KinsJeroenSagaertDriesS H02:02:310:05:3010,92096313
14642DruartJérémyCaretteFlorentS H02:02:400:05:3010,9076087
15697BeverwaegieChrisQuarreMichaleV H02:03:000:05:3110,87804878
16681DelriviereHubertWidarEdwinS H02:06:070:05:3910,60922426
17690VerzeleBenoitLenoirRobinS H02:06:440:05:4110,55760126
18679SamainAnthonyEmaerJérômeV H02:06:590:05:4210,53681586
19686StassinStéphaneMathieuNielsS H02:08:050:05:4510,44632401
20663DumoulinRudiBourghelleFabriceV H02:10:300:05:5110,25287356
21678CuvelierGillesMoulinRémyS H02:11:180:05:5310,19040366
22607BiltresseMaximeCapronEtienneS H02:13:370:06:0010,01372084
23604LeturcqFabienDusausoitEddyV H02:14:270:06:029,95165489
24648rozmanowskimichaelchojeanstephanV H02:14:350:06:029,941795666
25685BuryGaylordFontaineThierryV H02:15:340:06:059,869682813
26630ClerxSébastienClerxArnaudS H02:16:200:06:079,814180929
27676SANCHEZ BAUTISTAVIVIANAGENGOUXGILLESS Mx02:16:590:06:099,767611632
28696DedeurwaerderSteveDewatineThibautS H02:17:190:06:099,743900959
29626HenrotteQuentinHellinMaximeS H02:19:150:06:159,608617594
30647ChristiaensXavierMatBenoîtV H02:19:400:06:169,579952267
31618VelgheArnaudRenardCharlesS H02:19:570:06:179,560557342
32666LecryFransLessinesSteveV H02:20:100:06:179,545778835
33617KensierGuillaumeDuelzDavidV H02:20:580:06:199,491605581
34687VandermassenHelene Vandermassen MarcV Mx02:21:100:06:209,478158205
35695DuhemGerardDuhemJonathanS H02:21:520:06:229,431390977
36652SemetJulienOpsomerJulienS H02:23:290:06:269,325124869
37689AgostinoAntonioDelabasseeVincianneV Mx02:24:170:06:289,273420353
38669WattiezFrançoisMalvoisinFlorianS H02:24:570:06:309,230769231
39615BoulangerEmmanuelJaspardStéphaneS H02:25:590:06:339,165429844
40641TarantoPatriceDesmetChristopherS H02:26:390:06:359,123764064
41649VancaenegemValentinWallonBenjaminS H02:27:290:06:379,072211549
42668DuvinageLambertDelcourtFrançoisS H02:27:570:06:389,043595809
43655DervauxGaëtanDebavayJean-ChristopheV H02:28:090:06:399,031387108
44693TassinAntoineCampsNathanielS H02:29:130:06:418,966826762
45662VandenheuleFrédéricPapinCyrilleV H02:29:330:06:428,946840522
46665MerchezPhilippede PoorterSamuelV H02:29:390:06:438,940862011
47613CoumpourasGéraldineHennebertBertrandS Mx02:29:580:06:438,921982663
48658NemeghaireLaurentPieronVincentV H02:30:340:06:458,886429046
49608BacroAntoineMaesJeanS H02:31:050:06:478,856039713
50638SottiauxSébastienPilletFrançoisS H02:31:150:06:478,846280992
51637HolinEdmondDelvalléJéromeV H02:31:460:06:488,816165166
52698Henneuse JudithLecolierSergeV Mx02:32:410:06:518,763235455
53653HoussièreAntoineCenzanoVanessaS Mx02:32:230:06:508,780487805
54677BompasJeremyDelmayYaëlS H02:33:120:06:528,733681462
55692LustChristopheCousse BenoitS H02:33:390:06:538,708102831
56619HondequinManuBuffetYannickVH02:34:100:06:558,678918919
57654LiétardLaurentMatonGuillaumeS H02:34:230:06:558,666738638
58688CardosoManuHenrardMarcV H02:34:530:06:578,638760357
59644bocquilletmatthieucardosomanuelV H02:36:440:07:028,536792854
60659TrivierMorganHenrard JeremyS H02:37:040:07:038,518675722
61622GhislainBénédicteBoucartSandrineS F02:40:020:07:118,360758175
62645GRUMERMERCHRISTOPHEGRUMERMERCHRISTIANV H02:40:350:07:128,33212247
63675LechantreSylvetteBeckJacquesV Mx02:40:560:07:138,314001657
64684vandenbulckearnaudde coninckbenoitV H02:41:100:07:148,30196484
65631PATERNOSTRELaurentDELILLEFrédéricV H02:41:140:07:148,298532148
66609BourgiPatrickWerrebrouckBlaiseV H02:43:290:07:208,184320522
67672De becquincourtGontrandierickxMurielS Mx02:43:390:07:208,175985335
68603BradeferGillesAllardMarieS Mx02:44:450:07:238,121396055
69611RooseDavidAXENSALVARenaudS H02:44:330:07:238,131267092
70691SoddutAlbanBarbieuxJean-lucV H02:45:420:07:268,074834037
71639CasseHenriMeuristJoelV H02:45:590:07:278,061050306
72636DelfosseFannyPicardCarolineS F02:46:270:07:288,038449985
73605RustinJean-JacquesDelobelleBernadetteV Mx02:47:390:07:317,980912616
74612ParezJérémyDemelemesterJérémyS H02:49:520:07:377,876766091
75635LombardDavidBrefortDavidV H02:50:030:07:387,868274037
76634IwaszkoLiviaRuelleLénaS F02:50:590:07:407,825324106
77614SoyezLucileDevenynsCécileS F02:51:500:07:427,786614937
78694CleryIsabelleMauroyFredericV Mx02:52:350:07:447,752776437
79657MarkiIsabelleCambraiChristineV F02:53:190:07:467,719973074
80641XXXXXXXXXXXXXXXXX02:53:360:07:477,707373272
81633PLESKAOlivierLibertSabineV Mx02:56:540:07:567,563595252
82660DervauxJean-MichelThonardMickaelS H02:57:110:07:577,551500329
83640LeconteBrigitteSlabbinckJacquesV Mx02:58:380:08:017,490203396
84683DefeyterIneDesléTimS Mx02:59:490:08:047,44091204
85625FlorangeChristopherHotauxFannyS Mx03:17:000:08:506,791878173
86656BlondiauxMaximeBlondiauxMélanieS Mx03:18:000:08:536,757575758
87624PistiddaAlexandraDevelVéroniqueS F03:40:00VALUE!VALUE!